Regional Weather Roundup
Issued by NWS

Home | Current Version | Previous Version | Text Only | Print | Product List | Glossary On
Versions: 1 2 3 4 5 6 7 8 9 10 11 12 13 14 15 16 17 18 19 20 21 22 23 24 25 26 27 28 29 30 31 32 33 34 35 36 37 38 39 40 41 42 43 44 45 46 47 48 49 50
000
ASUS43 KDTX 010701
RWRMI
MICHIGAN HOURLY REGIONAL WEATHER ROUNDUP
NATIONAL WEATHER SERVICE DETROIT/PONTIAC MI
200 AM EST SUN MAR 01 2015

NOTE: "FAIR" INDICATES FEW OR NO CLOUDS BELOW 12,000 FEET WITH NO
SIGNIFICANT WEATHER AND/OR OBSTRUCTION TO VISIBILITY.

MIZ047>049-052>055-059>063-066>070-074>076-081>083-010800-
SOUTHEAST LOWER MICHIGAN

CITY           SKY/WX    TMP DP  RH WIND       PRES   REMARKS
ADRIAN         LGT SNOW  14  11  87 CALM      30.48F FOG
ALMA           CLOUDY    16   4  61 S7        30.47F WCI   6
ANN ARBOR      LGT SNOW  14  10  84 CALM      30.47F FOG
BAD AXE        CLOUDY    12   5  73 S5        30.49F WCI   4
CARO           CLOUDY    13   4  69 CALM      30.49S
DETROIT CITY   LGT SNOW  16   9  74 SE5       30.50F WCI   9
DETROIT        LGT SNOW  16  12  84 CALM      30.50F
FLINT          LGT SNOW  16   9  74 S3        30.49F
GROSSE ILE     LGT SNOW  16  10  79 CALM      30.49F
HILLSDALE      LGT SNOW  14  11  87 CALM      30.42F
HOWELL         LGT SNOW  14   9  80 SE5       30.46F WCI   6

CITY           SKY/WX    TMP DP  RH WIND       PRES   REMARKS
JACKSON        LGT SNOW  14   9  80 SE5       30.45F WCI   6
LAMBERTVILLE   LGT SNOW  18  14  86 CALM      30.48F
LANSING        LGT SNOW  14   9  80 S3        30.47F
LAPEER         LGT SNOW  14   8  76 S5        30.49S WCI   6
MASON          LGT SNOW  14   9  82 SE3       30.46F
MONROE         LGT SNOW  16  12  86 E3        30.47F
MT. CLEMENS    FLURRIES  13   7  75 E2        30.49F
PONTIAC        LGT SNOW  14   7  73 SE5       30.46F WCI   6
PORT HOPE        N/A     13   2  61 CALM      30.49F
PORT HURON     CLOUDY    12   7  79 CALM      30.52F
TRI CITIES     CLOUDY    16   4  59 S7        30.48F WCI   6
TROY           LGT SNOW  18   7  60 CALM      30.51F
SAGINAW HB     PTCLDY    18   7  62 S7        30.49F WCI   8
$$
MIZ043>046-050>051-056>058-064>065-071>073-077>080-010800-
SOUTHWEST LOWER MICHIGAN

CITY           SKY/WX    TMP DP  RH WIND       PRES   REMARKS
BATTLE CREEK   LGT SNOW  15  10  80 SE3       30.45F
BENTON HARBOR  LGT SNOW  16  13  88 E5        30.46F FOG     WCI   9
BIG RAPIDS     CLOUDY    11   2  67 CALM      30.42F
COLDWATER      LGT SNOW  15  11  86 SE3       30.44F
FREMONT        CLOUDY    15   5  64 S3        30.44F
HOLLAND        LGT SNOW  16  11  80 SE5       30.46F WCI   9
GRAND RAPIDS   LGT SNOW  14  10  84 S5        30.45F FOG     WCI   6
IONIA          LGT SNOW  16  11  82 S5        30.45F WCI   8
KALAMAZOO      LGT SNOW  15  10  80 CALM      30.45F
LUDINGTON      FLURRIES  18   7  61 S9        30.42F WCI   7
MARSHALL       CLOUDY    12   9  85 CALM      30.44F
MOUNT PLEASANT CLOUDY    16   4  59 S5        30.46S WCI   9
MUSKEGON       LGT SNOW  17  12  80 SE6       30.45F WCI   9
SOUTH HAVEN    LGT SNOW  17  13  84 CALM      30.46F
$$
MIZ016>042-010800-
NORTHERN LOWER MICHIGAN

CITY           SKY/WX    TMP DP  RH WIND       PRES   REMARKS
ALPENA         PTCLDY    10   1  67 CALM      30.46S
BEAVER ISLAND  CLOUDY    16   6  64 S10G17    30.39F WCI   4
BELLAIRE       PTCLDY     1  -3  83 CALM      30.44F
CADILLAC       PTCLDY    11   1  65 S6        30.37F WCI   1
CHARLEVOIX     CLOUDY    12   4  72 CALM      30.43F
FRANKFORT      PTCLDY    17   6  62 S7        30.41F WCI   8
GAYLORD        PTCLDY     6  -1  73 S5        30.37F WCI  -3
GRAYLING       CLOUDY     6  -4  65 CALM      30.40F
HARBOR SPRINGS PTCLDY     2  -1  84 CALM      30.41F
HOUGHTON LAKE  MOCLDY    10   0  63 S3        30.41F
MANISTEE       MOCLDY    16   3  57 S5        30.42F WCI   9
OSCODA         MOCLDY    11   0  61 S3        30.47F
PELLSTON       CLOUDY     1  -2  87 S7        30.41F WCI -12
ROGERS CITY    PTCLDY    10   4  75 CALM      30.45S
TRAVERSE CITY  PTCLDY    13   5  70 VRB3      30.40F
$$
MIZ007>008-015-010800-
EASTERN UPPER MICHIGAN

CITY           SKY/WX    TMP DP  RH WIND       PRES   REMARKS
KINROSS        MOCLDY     7   7 100 SE6       30.39S WCI  -3
MACKINAC ISLAN PTCLDY    13   6  73 S9G18     30.39F WCI   0
NEWBERRY       LGT SNOW  11   9  89 S9        30.35S WCI  -1
S. S. MARIE    PTCLDY     5   0  79 SE3       30.40S
MUNISING         N/A     12  -2  53 S9        30.34F WCI   0
$$
MIZ004>006-011>014-085-010800-
CENTRAL UPPER MICHIGAN

CITY           SKY/WX    TMP DP  RH WIND       PRES   REMARKS
MANISTIQUE     CLOUDY    14   2  59 SW3       30.36F
ESCANABA       CLOUDY    10   1  67 SW8       30.37F WCI  -1
MENOMINEE      CLOUDY    16   1  53 SW7       30.37F WCI   6
SAWYER-GWINN   CLOUDY     7  -1  69 S12       30.27S WCI  -8
$$
MIZ001>003-009>011-084-010800-
WESTERN UPPER MICHIGAN

CITY           SKY/WX    TMP DP  RH WIND       PRES   REMARKS
IRON MOUNTAIN  CLOUDY    11  -1  58 S5        30.29S WCI   3
HOUGHTON       MOCLDY    14  -1  51 SW13      30.21F WCI   0
COPPER HARBOR    N/A     15  -4  42 W5        30.24S WCI   8
IRONWOOD       CLOUDY    12   1  62 SW10      30.21S WCI  -1
$$

ABBREVIATIONS USED IN REMARKS
   TC - TEMPERATURE IN CELSIUS
  WCI - WIND CHILL INDEX
   HX - HEAT INDEX
  VSB - VISIBILITY



USA.gov is the U.S. government's official web portal to all federal, state and local government web resources and services.